Year,Month,Day,Hour,Minute,Value (Times are PST for temperature in C)
2010,08,07,00,00,17.70
2010,08,07,00,01,17.70
2010,08,07,00,02,17.70
2010,08,07,00,03,17.70
2010,08,07,00,04,17.70
2010,08,07,00,05,17.70
2010,08,07,00,06,17.70
2010,08,07,00,07,17.70
2010,08,07,00,08,17.70
2010,08,07,00,09,17.70
2010,08,07,00,10,17.70
2010,08,07,00,11,17.70
2010,08,07,00,12,17.70
2010,08,07,00,13,17.70
2010,08,07,00,14,17.70
2010,08,07,00,15,17.70
2010,08,07,00,16,17.70
2010,08,07,00,17,17.70
2010,08,07,00,18,17.70
2010,08,07,00,19,17.70
2010,08,07,00,20,17.60
2010,08,07,00,21,17.60
2010,08,07,00,22,17.60
2010,08,07,00,23,17.60
2010,08,07,00,24,17.60
2010,08,07,00,25,17.60
2010,08,07,00,26,17.60
2010,08,07,00,27,17.60
2010,08,07,00,28,17.60
2010,08,07,00,29,17.60
2010,08,07,00,30,17.60
2010,08,07,00,31,17.60
2010,08,07,00,32,17.60
2010,08,07,00,33,17.60
2010,08,07,00,34,17.60
2010,08,07,00,35,17.60
2010,08,07,00,36,17.60
2010,08,07,00,37,17.60
2010,08,07,00,38,17.60
2010,08,07,00,39,17.60
2010,08,07,00,40,17.60
2010,08,07,00,41,17.60
2010,08,07,00,42,17.60
2010,08,07,00,43,17.60
2010,08,07,00,44,17.60
2010,08,07,00,45,17.60
2010,08,07,00,46,17.60
2010,08,07,00,47,17.60
2010,08,07,00,48,17.50
2010,08,07,00,49,17.50
2010,08,07,00,50,17.50
2010,08,07,00,51,17.50
2010,08,07,00,52,17.50
2010,08,07,00,53,17.50
2010,08,07,00,54,17.50
2010,08,07,00,55,17.50
2010,08,07,00,56,17.50
2010,08,07,00,57,17.50
2010,08,07,00,58,17.40
2010,08,07,00,59,17.40
2010,08,07,01,00,17.40
2010,08,07,01,01,17.40
2010,08,07,01,02,17.40
2010,08,07,01,03,17.40
2010,08,07,01,04,17.40
2010,08,07,01,05,17.40
2010,08,07,01,06,17.40
2010,08,07,01,07,17.40
2010,08,07,01,08,17.40
2010,08,07,01,09,17.40
2010,08,07,01,10,17.40
2010,08,07,01,11,17.40
2010,08,07,01,12,17.40
2010,08,07,01,13,17.40
2010,08,07,01,14,17.40
2010,08,07,01,15,17.40
2010,08,07,01,16,17.40
2010,08,07,01,17,17.40
2010,08,07,01,18,17.40
2010,08,07,01,19,17.40
2010,08,07,01,20,17.40
2010,08,07,01,21,17.40
2010,08,07,01,22,17.40
2010,08,07,01,23,17.40
2010,08,07,01,24,17.40
2010,08,07,01,25,17.40
2010,08,07,01,26,17.40
2010,08,07,01,27,17.40
2010,08,07,01,28,17.40
2010,08,07,01,29,17.40
2010,08,07,01,30,17.40
2010,08,07,01,31,17.40
2010,08,07,01,32,17.40
2010,08,07,01,33,17.40
2010,08,07,01,34,17.40
2010,08,07,01,35,17.40
2010,08,07,01,36,17.40
2010,08,07,01,37,17.40
2010,08,07,01,38,17.40
2010,08,07,01,39,17.40
2010,08,07,01,40,17.40
2010,08,07,01,41,17.40
2010,08,07,01,42,17.30
2010,08,07,01,43,17.30
2010,08,07,01,44,17.40
2010,08,07,01,45,17.30
2010,08,07,01,46,17.30
2010,08,07,01,47,17.30
2010,08,07,01,48,17.30
2010,08,07,01,49,17.30
2010,08,07,01,50,17.30
2010,08,07,01,51,17.30
2010,08,07,01,52,17.30
2010,08,07,01,53,17.30
2010,08,07,01,54,17.30
2010,08,07,01,55,17.30
2010,08,07,01,56,17.30
2010,08,07,01,57,17.30
2010,08,07,01,58,17.20
2010,08,07,01,59,17.20
2010,08,07,02,00,17.20
2010,08,07,02,01,17.20
2010,08,07,02,02,17.20
2010,08,07,02,03,17.20
2010,08,07,02,04,17.20
2010,08,07,02,05,17.20
2010,08,07,02,06,17.20
2010,08,07,02,07,17.20
2010,08,07,02,08,17.30
2010,08,07,02,09,17.30
2010,08,07,02,10,17.30
2010,08,07,02,11,17.30
2010,08,07,02,12,17.30
2010,08,07,02,13,17.30
2010,08,07,02,14,17.30
2010,08,07,02,15,17.30
2010,08,07,02,16,17.30
2010,08,07,02,17,17.20
2010,08,07,02,18,17.20
2010,08,07,02,19,17.20
2010,08,07,02,20,17.20
2010,08,07,02,21,17.20
2010,08,07,02,22,17.20
2010,08,07,02,23,17.20
2010,08,07,02,24,17.20
2010,08,07,02,25,17.20
2010,08,07,02,26,17.20
2010,08,07,02,27,17.20
2010,08,07,02,28,17.20
2010,08,07,02,29,17.20
2010,08,07,02,30,17.20
2010,08,07,02,31,17.20
2010,08,07,02,32,17.20
2010,08,07,02,33,17.20
2010,08,07,02,34,17.20
2010,08,07,02,35,17.20
2010,08,07,02,36,17.20
2010,08,07,02,37,17.20
2010,08,07,02,38,17.20
2010,08,07,02,39,17.20
2010,08,07,02,40,17.20
2010,08,07,02,41,17.20
2010,08,07,02,42,17.20
2010,08,07,02,43,17.20
2010,08,07,02,44,17.20
2010,08,07,02,45,17.20
2010,08,07,02,46,17.20
2010,08,07,02,47,17.20
2010,08,07,02,48,17.20
2010,08,07,02,49,17.20
2010,08,07,02,50,17.20
2010,08,07,02,51,17.20
2010,08,07,02,52,17.30
2010,08,07,02,53,17.20
2010,08,07,02,54,17.20
2010,08,07,02,55,17.20
2010,08,07,02,56,17.20
2010,08,07,02,57,17.20
2010,08,07,02,58,17.20
2010,08,07,02,59,17.20
2010,08,07,03,00,17.20
2010,08,07,03,01,17.20
2010,08,07,03,06,17.30
2010,08,07,03,07,17.30
2010,08,07,03,08,17.30
2010,08,07,03,09,17.30
2010,08,07,03,10,17.30
2010,08,07,03,11,17.20
2010,08,07,03,12,17.20
2010,08,07,03,13,17.20
2010,08,07,03,14,17.20
2010,08,07,03,15,17.20
2010,08,07,03,16,17.20
2010,08,07,03,17,17.20
2010,08,07,03,18,17.20
2010,08,07,03,19,17.20
2010,08,07,03,20,17.20
2010,08,07,03,21,17.20
2010,08,07,03,22,17.20
2010,08,07,03,23,17.20
2010,08,07,03,24,17.20
2010,08,07,03,25,17.20
2010,08,07,03,26,17.20
2010,08,07,03,27,17.10
2010,08,07,03,28,17.10
2010,08,07,03,29,17.10
2010,08,07,03,30,17.10
2010,08,07,03,31,17.00
2010,08,07,03,32,17.00
2010,08,07,03,33,17.00
2010,08,07,03,34,16.90
2010,08,07,03,35,16.90
2010,08,07,03,36,16.90
2010,08,07,03,37,16.90
2010,08,07,03,38,16.80
2010,08,07,03,39,16.80
2010,08,07,03,40,16.80
2010,08,07,03,41,16.80
2010,08,07,03,42,16.80
2010,08,07,03,43,16.80
2010,08,07,03,44,16.70
2010,08,07,03,45,16.70
2010,08,07,03,46,16.70
2010,08,07,03,47,16.70
2010,08,07,03,48,16.60
2010,08,07,03,49,16.60
2010,08,07,03,50,16.60
2010,08,07,03,51,16.60
2010,08,07,03,52,16.60
2010,08,07,03,53,16.60
2010,08,07,03,54,16.50
2010,08,07,03,55,16.50
2010,08,07,03,56,16.50
2010,08,07,03,57,16.40
2010,08,07,03,58,16.40
2010,08,07,03,59,16.40
2010,08,07,04,00,16.40
2010,08,07,04,01,16.30
2010,08,07,04,02,16.30
2010,08,07,04,03,16.30
2010,08,07,04,04,16.30
2010,08,07,04,05,16.30
2010,08,07,04,06,16.30
2010,08,07,04,07,16.30
2010,08,07,04,08,16.30
2010,08,07,04,09,16.20
2010,08,07,04,10,16.20
2010,08,07,04,11,16.20
2010,08,07,04,12,16.20
2010,08,07,04,13,16.20
2010,08,07,04,14,16.20
2010,08,07,04,15,16.20
2010,08,07,04,16,16.20
2010,08,07,04,17,16.10
2010,08,07,04,18,16.10
2010,08,07,04,19,16.10
2010,08,07,04,20,16.10
2010,08,07,04,21,16.10
2010,08,07,04,22,16.10
2010,08,07,04,23,16.10
2010,08,07,04,24,16.10
2010,08,07,04,25,16.10
2010,08,07,04,26,16.00
2010,08,07,04,27,16.00
2010,08,07,04,28,16.00
2010,08,07,04,29,16.00
2010,08,07,04,30,16.00
2010,08,07,04,31,16.00
2010,08,07,04,32,16.00
2010,08,07,04,33,15.90
2010,08,07,04,34,15.90
2010,08,07,04,35,15.90
2010,08,07,04,36,15.90
2010,08,07,04,37,15.90
2010,08,07,04,38,15.90
2010,08,07,04,39,15.90
2010,08,07,04,40,15.90
2010,08,07,04,41,15.90
2010,08,07,04,42,15.90
2010,08,07,04,43,15.90
2010,08,07,04,44,15.90
2010,08,07,04,45,15.90
2010,08,07,04,46,15.90
2010,08,07,04,47,15.80
2010,08,07,04,48,15.80
2010,08,07,04,49,15.80
2010,08,07,04,50,15.80
2010,08,07,04,51,15.80
2010,08,07,04,52,15.80
2010,08,07,04,53,15.80
2010,08,07,04,54,15.80
2010,08,07,04,55,15.80
2010,08,07,04,56,15.80
2010,08,07,04,57,15.80
2010,08,07,04,58,15.80
2010,08,07,04,59,15.80
2010,08,07,05,00,15.80
2010,08,07,05,01,15.70
2010,08,07,05,02,15.70
2010,08,07,05,03,15.70
2010,08,07,05,04,15.70
2010,08,07,05,05,15.70
2010,08,07,05,06,15.70
2010,08,07,05,07,15.70
2010,08,07,05,08,15.70
2010,08,07,05,09,15.70
2010,08,07,05,10,15.70
2010,08,07,05,11,15.70
2010,08,07,05,12,15.70
2010,08,07,05,13,15.70
2010,08,07,05,14,15.70
2010,08,07,05,15,15.70
2010,08,07,05,16,15.70
2010,08,07,05,17,15.70
2010,08,07,05,18,15.70
2010,08,07,05,19,15.70
2010,08,07,05,20,15.70
2010,08,07,05,21,15.70
2010,08,07,05,22,15.70
2010,08,07,05,23,15.70
2010,08,07,05,24,15.70
2010,08,07,05,25,15.70
2010,08,07,05,26,15.70
2010,08,07,05,27,15.70
2010,08,07,05,28,15.70
2010,08,07,05,29,15.70
2010,08,07,05,30,15.70
2010,08,07,05,31,15.60
2010,08,07,05,32,15.60
2010,08,07,05,33,15.60
2010,08,07,05,34,15.60
2010,08,07,05,35,15.60
2010,08,07,05,36,15.60
2010,08,07,05,37,15.60
2010,08,07,05,38,15.60
2010,08,07,05,39,15.60
2010,08,07,05,40,15.60
2010,08,07,05,41,15.60
2010,08,07,05,42,15.60
2010,08,07,05,43,15.60
2010,08,07,05,44,15.60
2010,08,07,05,45,15.60
2010,08,07,05,46,15.60
2010,08,07,05,47,15.50
2010,08,07,05,48,15.50
2010,08,07,05,49,15.50
2010,08,07,05,50,15.50
2010,08,07,05,51,15.50
2010,08,07,05,52,15.50
2010,08,07,05,53,15.50
2010,08,07,05,54,15.50
2010,08,07,05,55,15.50
2010,08,07,05,56,15.50
2010,08,07,05,57,15.50
2010,08,07,05,58,15.50
2010,08,07,05,59,15.50
2010,08,07,06,00,15.50
2010,08,07,06,01,15.40
2010,08,07,06,02,15.40
2010,08,07,06,03,15.40
2010,08,07,06,04,15.40
2010,08,07,06,05,15.40
2010,08,07,06,06,15.40
2010,08,07,06,07,15.40
2010,08,07,06,08,15.50
2010,08,07,06,09,15.50
2010,08,07,06,10,15.50
2010,08,07,06,11,15.50
2010,08,07,06,12,15.50
2010,08,07,06,13,15.50
2010,08,07,06,14,15.50
2010,08,07,06,15,15.50
2010,08,07,06,16,15.50
2010,08,07,06,17,15.50
2010,08,07,06,18,15.50
2010,08,07,06,19,15.50
2010,08,07,06,20,15.50
2010,08,07,06,21,15.50
2010,08,07,06,22,15.50
2010,08,07,06,23,15.50
2010,08,07,06,24,15.50
2010,08,07,06,25,15.50
2010,08,07,06,26,15.50
2010,08,07,06,27,15.50
2010,08,07,06,28,15.50
2010,08,07,06,29,15.50
2010,08,07,06,30,15.50
2010,08,07,06,31,15.50
2010,08,07,06,32,15.60
2010,08,07,06,33,15.60
2010,08,07,06,34,15.50
2010,08,07,06,35,15.50
2010,08,07,06,36,15.50
2010,08,07,06,37,15.50
2010,08,07,06,38,15.50
2010,08,07,06,39,15.50
2010,08,07,06,40,15.50
2010,08,07,06,41,15.50
2010,08,07,06,42,15.50
2010,08,07,06,43,15.50
2010,08,07,06,44,15.50
2010,08,07,06,45,15.50
2010,08,07,06,46,15.40
2010,08,07,06,47,15.40
2010,08,07,06,48,15.40
2010,08,07,06,49,15.40
2010,08,07,06,50,15.40
2010,08,07,06,51,15.40
2010,08,07,06,52,15.40
2010,08,07,06,53,15.40
2010,08,07,06,54,15.40
2010,08,07,06,55,15.40
2010,08,07,06,56,15.40
2010,08,07,06,57,15.40
2010,08,07,06,58,15.40
2010,08,07,06,59,15.40
2010,08,07,07,00,15.40
2010,08,07,07,01,15.40
2010,08,07,07,02,15.40
2010,08,07,07,03,15.30
2010,08,07,07,04,15.30
2010,08,07,07,05,15.30
2010,08,07,07,06,15.30
2010,08,07,07,07,15.30
2010,08,07,07,08,15.30
2010,08,07,07,09,15.30
2010,08,07,07,10,15.30
2010,08,07,07,11,15.30
2010,08,07,07,12,15.30
2010,08,07,07,13,15.30
2010,08,07,07,14,15.30
2010,08,07,07,15,15.40
2010,08,07,07,16,15.40
2010,08,07,07,17,15.40
2010,08,07,07,18,15.40
2010,08,07,07,19,15.40
2010,08,07,07,20,15.40
2010,08,07,07,21,15.40
2010,08,07,07,22,15.40
2010,08,07,07,23,15.30
2010,08,07,07,24,15.30
2010,08,07,07,25,15.30
2010,08,07,07,26,15.30
2010,08,07,07,27,15.30
2010,08,07,07,28,15.30
2010,08,07,07,29,15.30
2010,08,07,07,30,15.30
2010,08,07,07,31,15.20
2010,08,07,07,32,15.20
2010,08,07,07,33,15.30
2010,08,07,07,34,15.20
2010,08,07,07,35,15.30
2010,08,07,07,36,15.30
2010,08,07,07,37,15.30
2010,08,07,07,38,15.30
2010,08,07,07,39,15.30
2010,08,07,07,40,15.30
2010,08,07,07,41,15.30
2010,08,07,07,42,15.30
2010,08,07,07,43,15.30
2010,08,07,07,44,15.30
2010,08,07,07,45,15.30
2010,08,07,07,46,15.30
2010,08,07,07,47,15.30
2010,08,07,07,48,15.30
2010,08,07,07,49,15.20
2010,08,07,07,50,15.20
2010,08,07,07,51,15.20
2010,08,07,07,52,15.20
2010,08,07,07,53,15.20
2010,08,07,07,54,15.20
2010,08,07,07,55,15.20
2010,08,07,07,56,15.20
2010,08,07,07,57,15.30
2010,08,07,07,58,15.30
2010,08,07,07,59,15.30
2010,08,07,08,00,15.20
2010,08,07,08,01,15.20
2010,08,07,08,02,15.20
2010,08,07,08,03,15.20
2010,08,07,08,04,15.20
2010,08,07,08,05,15.20
2010,08,07,08,06,15.20
2010,08,07,08,07,15.20
2010,08,07,08,08,15.20
2010,08,07,08,09,15.20
2010,08,07,08,10,15.20
2010,08,07,08,11,15.20
2010,08,07,08,12,15.20
2010,08,07,08,13,15.30
2010,08,07,08,14,15.30
2010,08,07,08,15,15.30
2010,08,07,08,16,15.30
2010,08,07,08,17,15.30
2010,08,07,08,18,15.30
2010,08,07,08,19,15.30
2010,08,07,08,20,15.30
2010,08,07,08,21,15.30
2010,08,07,08,22,15.30
2010,08,07,08,23,15.30
2010,08,07,08,24,15.30
2010,08,07,08,25,15.30
2010,08,07,08,26,15.30
2010,08,07,08,27,15.30
2010,08,07,08,28,15.30
2010,08,07,08,29,15.30
2010,08,07,08,30,15.40
2010,08,07,08,31,15.40
2010,08,07,08,32,15.40
2010,08,07,08,33,15.40
2010,08,07,08,34,15.40
2010,08,07,08,35,15.40
2010,08,07,08,36,15.40
2010,08,07,08,37,15.40
2010,08,07,08,38,15.40
2010,08,07,08,39,15.40
2010,08,07,08,40,15.40
2010,08,07,08,41,15.40
2010,08,07,08,42,15.40
2010,08,07,08,43,15.40
2010,08,07,08,44,15.40
2010,08,07,08,45,15.40
2010,08,07,08,46,15.40
2010,08,07,08,47,15.40
2010,08,07,08,48,15.40
2010,08,07,08,49,15.40
2010,08,07,08,50,15.40
2010,08,07,08,51,15.40
2010,08,07,08,52,15.40
2010,08,07,08,53,15.40
2010,08,07,08,54,15.40
2010,08,07,08,55,15.40
2010,08,07,08,56,15.40
2010,08,07,08,57,15.40
2010,08,07,08,58,15.40
2010,08,07,08,59,15.40
2010,08,07,09,00,15.40
2010,08,07,09,01,15.50
2010,08,07,09,02,15.50
2010,08,07,09,03,15.50
2010,08,07,09,04,15.50
2010,08,07,09,05,15.50
2010,08,07,09,06,15.50
2010,08,07,09,07,15.60
2010,08,07,09,08,15.60
2010,08,07,09,09,15.60
2010,08,07,09,10,15.60
2010,08,07,09,11,15.60
2010,08,07,09,12,15.60
2010,08,07,09,13,15.60
2010,08,07,09,14,15.60
2010,08,07,09,15,15.60
2010,08,07,09,16,15.60
2010,08,07,09,17,15.60
2010,08,07,09,18,15.60
2010,08,07,09,19,15.60
2010,08,07,09,20,15.60
2010,08,07,09,21,15.60
2010,08,07,09,22,15.60
2010,08,07,09,23,15.60
2010,08,07,09,24,15.60
2010,08,07,09,25,15.60
2010,08,07,09,26,15.60
2010,08,07,09,27,15.60
2010,08,07,09,28,15.60
2010,08,07,09,29,15.60
2010,08,07,09,30,15.60
2010,08,07,09,31,15.60
2010,08,07,09,32,15.60
2010,08,07,09,33,15.60
2010,08,07,09,34,15.60
2010,08,07,09,35,15.50
2010,08,07,09,36,15.50
2010,08,07,09,37,15.50
2010,08,07,09,38,15.50
2010,08,07,09,39,15.60
2010,08,07,09,40,15.60
2010,08,07,09,41,15.60
2010,08,07,09,42,15.60
2010,08,07,09,43,15.60
2010,08,07,09,44,15.60
2010,08,07,09,45,15.60
2010,08,07,09,46,15.60
2010,08,07,09,47,15.60
2010,08,07,09,48,15.60
2010,08,07,09,49,15.70
2010,08,07,09,50,15.70
2010,08,07,09,51,15.70
2010,08,07,09,52,15.70
2010,08,07,09,53,15.70
2010,08,07,09,54,15.70
2010,08,07,09,55,15.70
2010,08,07,09,56,15.70
2010,08,07,09,57,15.70
2010,08,07,09,58,15.70
2010,08,07,09,59,15.70
2010,08,07,10,00,15.70
2010,08,07,10,01,15.70
2010,08,07,10,02,15.70
2010,08,07,10,03,15.70
2010,08,07,10,04,15.70
2010,08,07,10,05,15.70
2010,08,07,10,06,15.70
2010,08,07,10,07,15.70
2010,08,07,10,08,15.70
2010,08,07,10,09,15.80
2010,08,07,10,10,15.80
2010,08,07,10,11,15.80
2010,08,07,10,12,15.80
2010,08,07,10,13,15.80
2010,08,07,10,14,15.80
2010,08,07,10,15,15.80
2010,08,07,10,16,15.80
2010,08,07,10,17,15.80
2010,08,07,10,18,15.80
2010,08,07,10,19,15.80
2010,08,07,10,20,15.90
2010,08,07,10,21,15.90
2010,08,07,10,22,15.90
2010,08,07,10,23,15.90
2010,08,07,10,24,16.00
2010,08,07,10,25,16.00
2010,08,07,10,26,16.00
2010,08,07,10,27,16.00
2010,08,07,10,28,16.00
2010,08,07,10,29,16.10
2010,08,07,10,30,16.10
2010,08,07,10,31,16.10
2010,08,07,10,32,16.10
2010,08,07,10,33,16.10
2010,08,07,10,34,16.10
2010,08,07,10,35,16.10
2010,08,07,10,36,16.10
2010,08,07,10,37,16.10
2010,08,07,10,38,16.10
2010,08,07,10,39,16.10
2010,08,07,10,40,16.20
2010,08,07,10,41,16.20
2010,08,07,10,42,16.20
2010,08,07,10,43,16.20
2010,08,07,10,44,16.20
2010,08,07,10,45,16.20
2010,08,07,10,46,16.20
2010,08,07,10,47,16.20
2010,08,07,10,48,16.20
2010,08,07,10,49,16.30
2010,08,07,10,50,16.20
2010,08,07,10,51,16.30
2010,08,07,10,52,16.30
2010,08,07,10,53,16.30
2010,08,07,10,54,16.30
2010,08,07,10,55,16.30
2010,08,07,10,56,16.30
2010,08,07,10,57,16.30
2010,08,07,10,58,16.30
2010,08,07,10,59,16.30
2010,08,07,11,00,16.30
2010,08,07,11,01,16.30
2010,08,07,11,02,16.30
2010,08,07,11,03,16.30
2010,08,07,11,04,16.30
2010,08,07,11,05,16.30
2010,08,07,11,06,16.30
2010,08,07,11,07,16.30
2010,08,07,11,08,16.30
2010,08,07,11,09,16.30
2010,08,07,11,10,16.30
2010,08,07,11,11,16.30
2010,08,07,11,12,16.30
2010,08,07,11,13,16.30
2010,08,07,11,14,16.30
2010,08,07,11,15,16.30
2010,08,07,11,16,16.30
2010,08,07,11,17,16.30
2010,08,07,11,18,16.30
2010,08,07,11,19,16.30
2010,08,07,11,20,16.30
2010,08,07,11,21,16.30
2010,08,07,11,22,16.30
2010,08,07,11,23,16.30
2010,08,07,11,24,16.40
2010,08,07,11,25,16.30
2010,08,07,11,26,16.30
2010,08,07,11,27,16.30
2010,08,07,11,28,16.30
2010,08,07,11,29,16.40
2010,08,07,11,30,16.30
2010,08,07,11,31,16.30
2010,08,07,11,32,16.30
2010,08,07,11,33,16.30
2010,08,07,11,34,16.30
2010,08,07,11,35,16.20
2010,08,07,11,36,16.20
2010,08,07,11,37,16.20
2010,08,07,11,38,16.20
2010,08,07,11,39,16.20
2010,08,07,11,40,16.20
2010,08,07,11,41,16.20
2010,08,07,11,42,16.10
2010,08,07,11,43,16.10
2010,08,07,11,44,16.10
2010,08,07,11,45,16.20
2010,08,07,11,46,16.20
2010,08,07,11,47,16.20
2010,08,07,11,48,16.20
2010,08,07,11,49,16.20
2010,08,07,11,50,16.20
2010,08,07,11,51,16.20
2010,08,07,11,52,16.20
2010,08,07,11,53,16.20
2010,08,07,11,54,16.20
2010,08,07,11,55,16.20
2010,08,07,11,56,16.30
2010,08,07,11,57,16.30
2010,08,07,11,58,16.30
2010,08,07,11,59,16.30
2010,08,07,12,00,16.30
2010,08,07,12,01,16.40
2010,08,07,12,02,16.40
2010,08,07,12,03,16.40
2010,08,07,12,04,16.40
2010,08,07,12,05,16.40
2010,08,07,12,06,16.40
2010,08,07,12,07,16.40
2010,08,07,12,08,16.40
2010,08,07,12,09,16.40
2010,08,07,12,10,16.40
2010,08,07,12,11,16.40
2010,08,07,12,12,16.50
2010,08,07,12,13,16.50
2010,08,07,12,14,16.60
2010,08,07,12,15,16.60
2010,08,07,12,16,16.60
2010,08,07,12,17,16.70
2010,08,07,12,18,16.70
2010,08,07,12,19,16.70
2010,08,07,12,20,16.70
2010,08,07,12,21,16.70
2010,08,07,12,22,16.70
2010,08,07,12,23,16.80
2010,08,07,12,24,16.80
2010,08,07,12,25,16.80
2010,08,07,12,26,16.90
2010,08,07,12,27,16.90
2010,08,07,12,28,16.90
2010,08,07,12,29,17.00
2010,08,07,12,30,16.90
2010,08,07,12,31,16.90
2010,08,07,12,32,17.00
2010,08,07,12,33,17.00
2010,08,07,12,34,17.00
2010,08,07,12,35,16.90
2010,08,07,12,36,16.90
2010,08,07,12,37,17.00
2010,08,07,12,38,17.00
2010,08,07,12,39,17.00
2010,08,07,12,40,17.10
2010,08,07,12,41,17.10
2010,08,07,12,42,17.10
2010,08,07,12,43,17.10
2010,08,07,12,44,17.10
2010,08,07,12,45,17.10
2010,08,07,12,46,17.10
2010,08,07,12,47,17.10
2010,08,07,12,48,17.10
2010,08,07,12,49,17.10
2010,08,07,12,50,17.10
2010,08,07,12,51,17.10
2010,08,07,12,52,17.10
2010,08,07,12,53,17.00
2010,08,07,12,54,17.00
2010,08,07,12,55,17.10
2010,08,07,12,56,17.10
2010,08,07,12,57,17.10
2010,08,07,12,58,17.10
2010,08,07,12,59,17.20
2010,08,07,13,00,17.20
2010,08,07,13,01,17.20
2010,08,07,13,02,17.20
2010,08,07,13,03,17.20
2010,08,07,13,04,17.20
2010,08,07,13,05,17.20
2010,08,07,13,06,17.10
2010,08,07,13,07,17.10
2010,08,07,13,08,17.10
2010,08,07,13,09,17.10
2010,08,07,13,10,17.10
2010,08,07,13,11,17.10
2010,08,07,13,12,17.00
2010,08,07,13,13,17.00
2010,08,07,13,14,17.00
2010,08,07,13,15,17.00
2010,08,07,13,16,17.00
2010,08,07,13,17,17.00
2010,08,07,13,18,17.00
2010,08,07,13,19,17.00
2010,08,07,13,20,17.00
2010,08,07,13,21,17.00
2010,08,07,13,22,17.00
2010,08,07,13,23,17.00
2010,08,07,13,24,17.00
2010,08,07,13,25,16.90
2010,08,07,13,26,16.90
2010,08,07,13,27,16.90
2010,08,07,13,28,16.90
2010,08,07,13,29,16.90
2010,08,07,13,30,17.00
2010,08,07,13,31,17.00
2010,08,07,13,32,17.10
2010,08,07,13,33,17.10
2010,08,07,13,34,17.20
2010,08,07,13,35,17.20
2010,08,07,13,36,17.20
2010,08,07,13,37,17.30
2010,08,07,13,38,17.30
2010,08,07,13,39,17.40
2010,08,07,13,40,17.40
2010,08,07,13,41,17.40
2010,08,07,13,42,17.40
2010,08,07,13,43,17.40
2010,08,07,13,44,17.40
2010,08,07,13,45,17.40
2010,08,07,13,46,17.40
2010,08,07,13,47,17.40
2010,08,07,13,48,17.40
2010,08,07,13,49,17.40
2010,08,07,13,50,17.40
2010,08,07,13,51,17.50
2010,08,07,13,52,17.50
2010,08,07,13,53,17.50
2010,08,07,13,54,17.60
2010,08,07,13,55,17.60
2010,08,07,13,56,17.60
2010,08,07,13,57,17.60
2010,08,07,13,58,17.70
2010,08,07,13,59,17.80
2010,08,07,14,00,17.80
2010,08,07,14,01,17.90
2010,08,07,14,02,17.90
2010,08,07,14,03,18.00
2010,08,07,14,04,18.10
2010,08,07,14,05,18.10
2010,08,07,14,06,18.20
2010,08,07,14,07,18.20
2010,08,07,14,08,18.20
2010,08,07,14,09,18.10
2010,08,07,14,10,18.10
2010,08,07,14,11,18.10
2010,08,07,14,12,18.10
2010,08,07,14,13,18.20
2010,08,07,14,14,18.20
2010,08,07,14,15,18.20
2010,08,07,14,16,18.20
2010,08,07,14,17,18.20
2010,08,07,14,18,18.10
2010,08,07,14,19,18.10
2010,08,07,14,20,18.10
2010,08,07,14,21,18.10
2010,08,07,14,22,18.10
2010,08,07,14,23,18.10
2010,08,07,14,24,18.10
2010,08,07,14,25,18.10
2010,08,07,14,26,18.10
2010,08,07,14,27,18.00
2010,08,07,14,28,18.00
2010,08,07,14,29,18.00
2010,08,07,14,30,18.00
2010,08,07,14,31,18.00
2010,08,07,14,32,18.00
2010,08,07,14,33,18.10
2010,08,07,14,34,18.10
2010,08,07,14,35,18.10
2010,08,07,14,36,18.10
2010,08,07,14,37,18.20
2010,08,07,14,38,18.20
2010,08,07,14,39,18.20
2010,08,07,14,40,18.20
2010,08,07,14,41,18.20
2010,08,07,14,42,18.20
2010,08,07,14,43,18.20
2010,08,07,14,44,18.30
2010,08,07,14,45,18.30
2010,08,07,14,46,18.40
2010,08,07,14,47,18.40
2010,08,07,14,48,18.50
2010,08,07,14,49,18.50
2010,08,07,14,50,18.60
2010,08,07,14,51,18.60
2010,08,07,14,52,18.60
2010,08,07,14,53,18.70
2010,08,07,14,54,18.70
2010,08,07,14,55,18.70
2010,08,07,14,56,18.70
2010,08,07,14,57,18.70
2010,08,07,14,58,18.70
2010,08,07,14,59,18.70
2010,08,07,15,00,18.70
2010,08,07,15,01,18.80
2010,08,07,15,02,18.80
2010,08,07,15,03,18.80
2010,08,07,15,04,18.80
2010,08,07,15,05,18.80
2010,08,07,15,06,18.70
2010,08,07,15,07,18.70
2010,08,07,15,08,18.60
2010,08,07,15,09,18.60
2010,08,07,15,10,18.50
2010,08,07,15,11,18.50
2010,08,07,15,12,18.50
2010,08,07,15,13,18.50
2010,08,07,15,14,18.50
2010,08,07,15,15,18.60
2010,08,07,15,16,18.60
2010,08,07,15,17,18.60
2010,08,07,15,18,18.50
2010,08,07,15,19,18.50
2010,08,07,15,20,18.40
2010,08,07,15,21,18.40
2010,08,07,15,22,18.30
2010,08,07,15,23,18.30
2010,08,07,15,24,18.30
2010,08,07,15,25,18.30
2010,08,07,15,26,18.30
2010,08,07,15,27,18.30
2010,08,07,15,28,18.20
2010,08,07,15,29,18.20
2010,08,07,15,30,18.20
2010,08,07,15,31,18.20
2010,08,07,15,32,18.20
2010,08,07,15,33,18.10
2010,08,07,15,34,18.00
2010,08,07,15,35,18.00
2010,08,07,15,36,17.90
2010,08,07,15,37,17.90
2010,08,07,15,38,17.90
2010,08,07,15,39,17.80
2010,08,07,15,40,17.80
2010,08,07,15,41,17.80
2010,08,07,15,42,17.80
2010,08,07,15,43,17.80
2010,08,07,15,44,17.80
2010,08,07,15,45,17.90
2010,08,07,15,46,17.90
2010,08,07,15,47,17.90
2010,08,07,15,48,17.90
2010,08,07,15,49,17.90
2010,08,07,15,50,17.80
2010,08,07,15,51,17.80
2010,08,07,15,52,17.80
2010,08,07,15,53,17.70
2010,08,07,15,54,17.70
2010,08,07,15,55,17.70
2010,08,07,15,56,17.70
2010,08,07,15,57,17.70
2010,08,07,15,58,17.70
2010,08,07,15,59,17.70
2010,08,07,16,00,17.70
2010,08,07,16,01,17.70
2010,08,07,16,02,17.70
2010,08,07,16,03,17.70
2010,08,07,16,04,17.70
2010,08,07,16,05,17.70
2010,08,07,16,06,17.70
2010,08,07,16,07,17.70
2010,08,07,16,08,17.70
2010,08,07,16,09,17.80
2010,08,07,16,10,17.80
2010,08,07,16,11,17.80
2010,08,07,16,12,17.90
2010,08,07,16,13,17.90
2010,08,07,16,14,17.90
2010,08,07,16,15,17.90
2010,08,07,16,16,17.90
2010,08,07,16,17,17.90
2010,08,07,16,18,17.90
2010,08,07,16,19,18.00
2010,08,07,16,20,18.00
2010,08,07,16,21,18.00
2010,08,07,16,22,18.10
2010,08,07,16,23,18.10
2010,08,07,16,24,18.10
2010,08,07,16,25,18.10
2010,08,07,16,26,18.10
2010,08,07,16,27,18.10
2010,08,07,16,28,18.20
2010,08,07,16,29,18.20
2010,08,07,16,30,18.20
2010,08,07,16,31,18.20
2010,08,07,16,32,18.20
2010,08,07,16,33,18.20
2010,08,07,16,34,18.30
2010,08,07,16,35,18.30
2010,08,07,16,36,18.30
2010,08,07,16,37,18.20
2010,08,07,16,38,18.20
2010,08,07,16,39,18.20
2010,08,07,16,40,18.20
2010,08,07,16,41,18.10
2010,08,07,16,42,18.10
2010,08,07,16,43,18.10
2010,08,07,16,44,18.10
2010,08,07,16,45,18.10
2010,08,07,16,46,18.10
2010,08,07,16,47,18.00
2010,08,07,16,48,18.00
2010,08,07,16,49,18.00
2010,08,07,16,50,17.90
2010,08,07,16,51,17.90
2010,08,07,16,52,17.90
2010,08,07,16,53,17.90
2010,08,07,16,54,17.90
2010,08,07,16,55,17.90
2010,08,07,16,56,17.90
2010,08,07,16,57,17.80
2010,08,07,16,58,17.80
2010,08,07,16,59,17.80
2010,08,07,17,00,17.70
2010,08,07,17,01,17.70
2010,08,07,17,02,17.60
2010,08,07,17,03,17.60
2010,08,07,17,04,17.50
2010,08,07,17,05,17.50
2010,08,07,17,06,17.40
2010,08,07,17,07,17.40
2010,08,07,17,08,17.40
2010,08,07,17,09,17.40
2010,08,07,17,10,17.40
2010,08,07,17,11,17.40
2010,08,07,17,12,17.40
2010,08,07,17,13,17.40
2010,08,07,17,14,17.40
2010,08,07,17,15,17.40
2010,08,07,17,16,17.40
2010,08,07,17,17,17.40
2010,08,07,17,18,17.40
2010,08,07,17,19,17.40
2010,08,07,17,20,17.30
2010,08,07,17,21,17.30
2010,08,07,17,22,17.30
2010,08,07,17,23,17.30